Tracking 29747 objects as of 9-Oct-2024
HD Live streaming from Space Station
objects crossing your sky now

ARIANE 5 DEB (SYLDA)

Track ARIANE 5 DEB (SYLDA) now!
10-day predictions


NORAD ID: 33155
Int'l Code: 2008-034C
Perigee: 164.3 km
Apogee: 8,206.6 km
Inclination: 1.6 °
Period: 179.9 minutes
Semi major axis: 10556 km
RCS: 19.978 m2 (large)
Launch date: July 7, 2008
Source: France (FR)
Launch site: FRENCH GUIANA (FRGUI)

Note: This is SATELLITE DEBRIS
Your satellite tracking list
Your tracking list is empty




NASA's NSSDC Master Catalog

Two Line Element Set (TLE):
1 33155U 08034C   24280.67293731  .02187555 -17133-5  50840-2 0  9999
2 33155   1.5869  19.5934 3809169 289.6794  33.6612  8.00434392184366
Source of the keplerian elements: AFSPC